Date String (YYYY-MM-DD hh:mm:ss) UTC,Instrument flags,absolute air pressure of the measurement (hPa),sample flow rate (lpm),inlet stack bypass flow (lpm),air temperature of the measurement (°C),ambient temperature measured by the external sensor (°C),aerosol sample conditioner tube jacket temperature (°C),OPC LED temperature (°C),internal box temperature (°C),relative humidity of the measurement (%),span deviation,mass concentration of particles derived from Lorenz-Mie calculation of OPC scattering (μg/m³),mass concentration of particles derived from Lorenz-Mie calculation of OPC scattering (μg/m³),mass concentration of particles derived from Lorenz-Mie calculation of OPC scattering (μg/m³)
DateTimeUTC,F1_M11,P_M11,Q1_M11,Q2_M11,T1_M11,T2_M11,T3_M11,T4_M11,T5_M11,U1_M11,ZSPAN_M11,X0_M11,X2_M11,X1_M11
2023-11-23 07:00:00,SystemResetWarning,0829.0,5.00,000.00,026.2,025.2,000.0,034.5,027.5,8.8,0000.0,0007.49,0003.34,0002.32
2023-11-23 07:01:00,SystemResetWarning,0829.0,5.00,000.00,026.2,025.2,000.0,034.5,027.5,8.8,0000.0,0007.46,0003.32,0002.34
2023-11-23 07:02:00,SystemResetWarning,0829.0,5.00,000.00,026.2,025.2,000.0,034.5,027.5,8.8,0000.0,0007.61,0003.33,0002.39
2023-11-23 07:03:00,SystemResetWarning,0829.0,5.00,000.00,026.2,025.2,000.0,034.5,027.4,8.8,0000.0,0008.27,0003.33,0002.42
2023-11-23 07:04:00,SystemResetWarning,0829.0,5.00,000.00,026.2,025.2,000.0,034.5,027.3,8.8,0000.0,0009.05,0003.37,0002.45
2023-11-23 07:05:00,SystemResetWarning,0829.1,4.99,000.00,026.2,025.1,000.0,034.5,027.3,8.8,0000.0,0009.47,0003.41,0002.46
2023-11-23 07:06:00,SystemResetWarning,0829.1,5.00,000.00,026.1,025.1,000.0,034.5,027.3,8.8,0000.0,0009.87,0003.45,0002.49
2023-11-23 07:07:00,SystemResetWarning,0829.1,5.00,000.00,026.1,025.1,000.0,034.5,027.3,8.9,0000.0,0009.86,0003.46,0002.51
2023-11-23 07:08:00,SystemResetWarning,0829.1,5.00,000.00,026.1,025.0,000.0,034.5,027.3,8.9,0000.0,0009.72,0003.47,0002.52
2023-11-23 07:09:00,SystemResetWarning,0829.1,5.00,000.00,026.1,025.0,000.0,034.5,027.3,8.9,0000.0,0009.46,0003.47,0002.54
2023-11-23 07:10:00,SystemResetWarning,0829.1,5.00,000.00,026.0,025.0,000.0,034.5,027.2,8.9,0000.0,0009.27,0003.46,0002.56
2023-11-23 07:11:00,SystemResetWarning,0829.1,5.00,000.00,026.0,024.9,000.0,034.5,027.2,8.9,0000.0,0009.23,0003.45,0002.54
2023-11-23 07:12:00,SystemResetWarning,0829.1,5.01,000.00,026.0,024.9,000.0,034.5,027.2,8.9,0000.0,0009.16,0003.43,0002.52
2023-11-23 07:13:00,SystemResetWarning,0829.1,5.01,000.00,026.0,024.9,000.0,034.4,027.2,8.9,0000.0,0009.43,0003.45,0002.52
2023-11-23 07:14:00,SystemResetWarning,0829.1,5.00,000.00,026.0,024.8,000.0,034.4,027.1,8.9,0000.0,0009.16,0003.48,0002.50
2023-11-23 07:15:00,SystemResetWarning,0829.1,5.00,000.00,026.0,024.9,000.0,034.4,027.1,9.0,0000.0,0008.38,0003.47,0002.48
2023-11-23 07:16:00,SystemResetWarning,0829.1,4.99,000.00,025.9,024.8,000.0,034.4,027.2,9.0,0000.0,0009.09,0003.46,0002.47
2023-11-23 07:17:00,SystemResetWarning,0829.1,4.99,000.00,025.9,024.8,000.0,034.4,027.2,9.0,0000.0,0009.11,0003.44,0002.46
2023-11-23 07:18:00,SystemResetWarning,0829.1,5.00,000.00,025.9,024.8,000.0,034.4,027.2,9.0,0000.0,0009.08,0003.45,0002.45
2023-11-23 07:19:00,SystemResetWarning,0829.1,5.01,000.00,025.9,024.8,000.0,034.4,027.2,9.0,0000.0,0009.13,0003.43,0002.44
2023-11-23 07:20:00,SystemResetWarning,0829.1,5.01,000.00,025.9,024.8,000.0,034.4,027.1,9.0,0000.0,0009.34,0003.41,0002.41
2023-11-23 07:21:00,SystemResetWarning,0829.1,5.01,000.00,025.9,024.8,000.0,034.3,027.1,9.0,0000.0,0009.39,0003.40,0002.39
2023-11-23 07:22:00,SystemResetWarning,0829.1,5.00,000.00,025.9,024.8,000.0,034.3,027.1,9.0,0000.0,0009.55,0003.41,0002.38
2023-11-23 07:23:00,SystemResetWarning,0829.1,4.99,000.00,025.9,024.8,000.0,034.3,027.2,9.0,0000.0,0010.36,0003.42,0002.38
2023-11-23 07:24:00,SystemResetWarning,0829.1,5.00,000.00,025.9,024.8,000.0,034.3,027.1,9.0,0000.0,0010.06,0003.38,0002.36
2023-11-23 07:25:00,SystemResetWarning,0829.1,5.00,000.00,025.9,024.8,000.0,034.3,027.1,9.0,0000.0,0009.99,0003.39,0002.37
2023-11-23 07:26:00,SystemResetWarning,0829.1,4.99,000.00,025.9,024.8,000.0,034.3,027.1,9.0,0000.0,0010.01,0003.40,0002.38
2023-11-23 07:27:00,SystemResetWarning,0829.1,5.00,000.00,025.9,024.8,000.0,034.3,027.1,9.0,0000.0,0009.64,0003.45,0002.40
2023-11-23 07:28:00,SystemResetWarning,0829.1,5.01,000.00,025.9,024.8,000.0,034.3,027.1,9.0,0000.0,0009.38,0003.51,0002.40
2023-11-23 07:29:00,SystemResetWarning,0829.1,5.01,000.00,025.9,024.8,000.0,034.3,027.1,9.1,0000.0,0009.42,0003.51,0002.40
2023-11-23 07:30:00,SystemResetWarning,0829.1,5.01,000.00,025.9,024.8,000.0,034.3,027.1,9.1,0000.0,0009.70,0003.52,0002.40
2023-11-23 07:31:00,SystemResetWarning,0829.1,4.99,000.00,025.9,024.8,000.0,034.3,027.1,9.1,0000.0,0009.56,0003.54,0002.42
2023-11-23 07:32:00,SystemResetWarning,0829.1,4.99,000.00,025.9,024.9,000.0,034.3,027.1,9.1,0000.0,0010.61,0003.60,0002.45
2023-11-23 07:33:00,SystemResetWarning,0829.1,4.99,000.00,025.9,024.9,000.0,034.3,027.1,9.1,0000.0,0010.90,0003.60,0002.48
2023-11-23 07:34:00,SystemResetWarning,0829.1,5.00,000.00,025.9,024.9,000.0,034.3,027.2,9.1,0000.0,0010.24,0003.65,0002.52
2023-11-23 07:35:00,SystemResetWarning,0829.1,5.00,000.00,025.9,024.9,000.0,034.2,027.2,9.2,0000.0,0010.22,0003.68,0002.58
2023-11-23 07:36:00,SystemResetWarning,0829.1,5.01,000.00,025.9,024.9,000.0,034.2,027.1,9.2,0000.0,0010.13,0003.69,0002.61
2023-11-23 07:37:00,SystemResetWarning,0829.1,5.00,000.00,025.9,024.9,000.0,034.2,027.1,9.2,0000.0,0010.17,0003.73,0002.66
2023-11-23 07:38:00,SystemResetWarning,0829.1,5.00,000.00,025.9,024.9,000.0,034.2,027.1,9.2,0000.0,0009.93,0003.76,0002.71
2023-11-23 07:39:00,SystemResetWarning,0829.2,5.01,000.00,025.9,024.9,000.0,034.2,027.1,9.2,0000.0,0009.80,0003.72,0002.76
2023-11-23 07:40:00,SystemResetWarning,0829.2,4.99,000.00,025.9,024.8,000.0,034.2,027.1,9.2,0000.0,0010.81,0003.81,0002.83
2023-11-23 07:41:00,SystemResetWarning,0829.2,4.99,000.00,025.9,024.8,000.0,034.2,027.1,9.2,0000.0,0010.67,0003.87,0002.92
2023-11-23 07:42:00,SystemResetWarning,0829.2,5.00,000.00,025.9,024.8,000.0,034.2,027.1,9.2,0000.0,0010.79,0003.91,0003.01
2023-11-23 07:43:00,SystemResetWarning,0829.2,5.00,000.00,025.9,024.8,000.0,034.2,027.2,9.2,0000.0,0010.42,0003.90,0003.08
2023-11-23 07:44:00,SystemResetWarning,0829.3,5.00,000.00,025.9,024.8,000.0,034.2,027.1,9.2,0000.0,0010.44,0003.94,0003.13
2023-11-23 07:45:00,SystemResetWarning,0829.3,5.01,000.00,025.8,024.8,000.0,034.2,027.1,9.2,0000.0,0010.70,0003.98,0003.16
2023-11-23 07:46:00,SystemResetWarning,0829.3,5.00,000.00,025.8,024.8,000.0,034.2,027.1,9.2,0000.0,0011.36,0004.04,0003.18
2023-11-23 07:47:00,SystemResetWarning,0829.3,5.01,000.00,025.8,024.8,000.0,034.2,027.1,9.2,0000.0,0011.82,0004.11,0003.20
2023-11-23 07:48:00,SystemResetWarning,0829.2,4.99,000.00,025.8,024.8,000.0,034.2,027.1,9.2,0000.0,0012.29,0004.14,0003.22
2023-11-23 07:49:00,SystemResetWarning,0829.3,4.99,000.00,025.8,024.8,000.0,034.2,027.1,9.2,0000.0,0013.01,0004.12,0003.23
2023-11-23 07:50:00,SystemResetWarning,0829.2,4.99,000.00,025.8,024.8,000.0,034.2,027.1,9.3,0000.0,0013.37,0004.18,0003.25
2023-11-23 07:51:00,SystemResetWarning,0829.2,5.01,000.00,025.8,024.8,000.0,034.2,027.1,9.3,0000.0,0013.06,0004.19,0003.26
2023-11-23 07:52:00,SystemResetWarning,0829.3,5.00,000.00,025.8,024.8,000.0,034.2,027.1,9.3,0000.0,0013.31,0004.23,0003.27
2023-11-23 07:53:00,SystemResetWarning,0829.2,5.00,000.00,025.8,024.8,000.0,034.2,027.1,9.3,0000.0,0013.38,0004.28,0003.27
2023-11-23 07:54:00,SystemResetWarning,0829.2,5.01,000.00,025.8,024.8,000.0,034.2,027.1,9.3,0000.0,0013.01,0004.31,0003.27
2023-11-23 07:55:00,SystemResetWarning,0829.2,5.01,000.00,025.8,024.7,000.0,034.2,027.1,9.3,0000.0,0012.81,0004.37,0003.27
2023-11-23 07:56:00,SystemResetWarning,0829.2,5.00,000.00,025.8,024.7,000.0,034.2,027.1,9.3,0000.0,0013.13,0004.34,0003.26
2023-11-23 07:57:00,SystemResetWarning,0829.2,4.99,000.00,025.8,024.7,000.0,034.2,027.1,9.3,0000.0,0012.75,0004.30,0003.24
2023-11-23 07:58:00,SystemResetWarning,0829.2,5.00,000.00,025.8,024.7,000.0,034.2,027.1,9.3,0000.0,0012.50,0004.25,0003.24
2023-11-23 07:59:00,SystemResetWarning,0829.2,4.99,000.00,025.8,024.7,000.0,034.1,027.1,9.3,0000.0,0012.44,0004.22,0003.22
